"Pseudo-MPEC" for P10Swll

Created 2019 Oct 21 2:07:34 UT using Find_Orb

Click here for an explanation of pseudo-MPECs

 
 Astrometry: 
     P10Swll  C2019 10 07tET)QAstrometryQI.J5dJcu1SH2pSqj;8(VAredacted;WIKQH%F51
     P10Swll  C2019 10 074SW:??l^iUYTb\fX5]I*v+`qbcBne!\?2QuRpclickg6_vIn^+Z=F51
     P10Swll  C2019 10 07ur@%HK@?h)a6IbrhOI='s+qY[t'here@Za7U3WZ[\TJ^;:-X3O-6F51
     P10Swll  C2019 10 07lh0Q9C33J-meDyU7Z7k5O*V6bCfor?explanationIZf7jq*g*7kF51

Station data:
(F51) Pan-STARRS 1, Haleakala  (N20.707235 W156.255910)  US/Hawaii.
   Observers N. Primak, A. Schultz, S. Watters, J. Thiel, T. Goggia. Measurer
   PS1 Science Consortium. 1.8-m Ritchey-Chrétien + CCD.

Orbital elements:  P10Swll
   Perihelion 2019 May 25.650467 +/- 69.2 TT = 15:36:40 (JD 2458629.150467)
Epoch 2019 Oct  8.0 TT = JDT 2458764.5   Earth MOID: 0.0319   AutoNEOCP
M 137.28675458 +/- 100              (J2000 ecliptic)
n   1.01431272 +/- 0.469            Peri.   35.40210 +/- 100
a   0.98104320 +/- 0.302            Node   196.59645 +/- 25
e   0.0677892 +/- 0.276             Incl.    7.85463 +/- 21
P   0.97/354.91d           H 27.8   G  0.15   U 12.2  SR
q 0.91453903 +/- 0.209    Q 1.04754736 +/- 17.9
From 4 observations 2019 Oct. 7 (53.4 min); mean residual 0".31
Residuals in arcseconds: 
191007 F51  .04+  .47+    191007 F51  .03+  .29-    
191007 F51  .08-  .57-    191007 F51  .01+  .39+    

Ephemerides (geocentric):
Date (UTC) HH   RA              Dec         delta   r     elong  mag " sig PA
---- -- -- --  -------------   -----------  ------ ------ -----  --- ---- ---
2019 10 21 02  00 54 07.715   -22 38 09.71  .05344 1.0399 145.0 22.9  53d   6
2019 10 21 03  00 54 08.670   -22 42 08.12  .05353 1.0399 144.9 22.9  53d   6
2019 10 21 04  00 54 09.625   -22 46 05.57  .05363 1.0399 144.8 22.9  53d   6
2019 10 21 05  00 54 10.580   -22 50 02.08  .05372 1.0400 144.8 22.9  53d   6
2019 10 21 06  00 54 11.536   -22 53 57.64  .05381 1.0400 144.7 22.9  53d   6
2019 10 21 07  00 54 12.492   -22 57 52.26  .05391 1.0400 144.6 22.9  53d   6
2019 10 21 08  00 54 13.449   -23 01 45.94  .05400 1.0400 144.5 22.9  53d   6
2019 10 21 09  00 54 14.406   -23 05 38.68  .05409 1.0401 144.4 23.0  53d   6
2019 10 21 10  00 54 15.363   -23 09 30.49  .05419 1.0401 144.3 23.0  53d   6
2019 10 21 11  00 54 16.321   -23 13 21.38  .05428 1.0401 144.2 23.0  53d   5
2019 10 21 12  00 54 17.279   -23 17 11.34  .05437 1.0401 144.2 23.0  53d   5
2019 10 21 13  00 54 18.238   -23 21 00.38  .05447 1.0401 144.1 23.0  53d   5
2019 10 21 14  00 54 19.197   -23 24 48.51  .05456 1.0402 144.0 23.0  53d   5
2019 10 21 15  00 54 20.157   -23 28 35.72  .05465 1.0402 143.9 23.0  53d   5
2019 10 21 16  00 54 21.117   -23 32 22.02  .05475 1.0402 143.8 23.0  53d   5
2019 10 21 17  00 54 22.078   -23 36 07.41  .05484 1.0402 143.7 23.0  53d   5
2019 10 21 18  00 54 23.039   -23 39 51.91  .05494 1.0402 143.6 23.0  53d   5
2019 10 21 19  00 54 24.001   -23 43 35.50  .05503 1.0403 143.6 23.0  53d   5
2019 10 21 20  00 54 24.963   -23 47 18.19  .05512 1.0403 143.5 23.0  53d   4
2019 10 21 21  00 54 25.926   -23 51 00.00  .05522 1.0403 143.4 23.0  53d   4
2019 10 21 22  00 54 26.890   -23 54 40.91  .05531 1.0403 143.3 23.0  54d   3
2019 10 21 23  00 54 27.853   -23 58 20.94  .05541 1.0403 143.2 23.0  54d   6
2019 10 22 00  00 54 28.818   -24 02 00.08  .05550 1.0404 143.1 23.0  54d   5
2019 10 22 01  00 54 29.783   -24 05 38.35  .05560 1.0404 143.1 23.0  54d   5
2019 10 22 02  00 54 30.749   -24 09 15.74  .05569 1.0404 143.0 23.1  55d   5
2019 10 22 03  00 54 31.715   -24 12 52.26  .05579 1.0404 142.9 23.1  55d   5
2019 10 22 04  00 54 32.682   -24 16 27.91  .05588 1.0404 142.8 23.1  55d   5
2019 10 22 05  00 54 33.650   -24 20 02.69  .05598 1.0405 142.7 23.1  55d   4
2019 10 22 06  00 54 34.618   -24 23 36.62  .05607 1.0405 142.7 23.1  55d   4
2019 10 22 07  00 54 35.587   -24 27 09.68  .05617 1.0405 142.6 23.1  55d   4
2019 10 22 08  00 54 36.556   -24 30 41.89  .05626 1.0405 142.5 23.1  55d   4
2019 10 22 09  00 54 37.527   -24 34 13.24  .05636 1.0405 142.4 23.1  55d   4
2019 10 22 10  00 54 38.498   -24 37 43.75  .05645 1.0406 142.3 23.1  55d   4
2019 10 22 11  00 54 39.469   -24 41 13.41  .05655 1.0406 142.3 23.1  55d   4
2019 10 22 12  00 54 40.442   -24 44 42.23  .05665 1.0406 142.2 23.1  55d   4
2019 10 22 13  00 54 41.415   -24 48 10.21  .05674 1.0406 142.1 23.1  56d   3
2019 10 22 14  00 54 42.389   -24 51 37.35  .05684 1.0406 142.0 23.1  56d   3
2019 10 22 15  00 54 43.363   -24 55 03.66  .05693 1.0407 141.9 23.1  56d   3
2019 10 22 16  00 54 44.339   -24 58 29.15  .05703 1.0407 141.9 23.1  56d   3
2019 10 22 17  00 54 45.315   -25 01 53.80  .05713 1.0407 141.8 23.1  56d   3
2019 10 22 18  00 54 46.292   -25 05 17.63  .05722 1.0407 141.7 23.1  56d   3
2019 10 22 19  00 54 47.269   -25 08 40.65  .05732 1.0407 141.6 23.2  56d   3
2019 10 22 20  00 54 48.248   -25 12 02.84  .05741 1.0408 141.5 23.2  56d   3
2019 10 22 21  00 54 49.227   -25 15 24.23  .05751 1.0408 141.5 23.2  56d   2
2019 10 22 22  00 54 50.207   -25 18 44.80  .05761 1.0408 141.4 23.2  56d   2
2019 10 22 23  00 54 51.188   -25 22 04.56  .05770 1.0408 141.3 23.2  56d   2
2019 10 23 00  00 54 52.170   -25 25 23.52  .05780 1.0408 141.2 23.2  56d   2
2019 10 23 01  00 54 53.153   -25 28 41.68  .05790 1.0409 141.2 23.2  57d   2